FW9306 Weather Reports


Display with metric or nautical units.
time (UTC)temp
F
wind
direction
speed
MPH
gust
MPH
rain 1hr
in
rain 24hr
in
rain mn
in
humidity
%
barometer
mb
20260831194138 68 69 2.0 2.0 0.47 0.26 0.26 87 1019.8
20260831193632 69 85 1.0 2.0 1.02 0.24 0.24 87 1019.9
20260831193127 69 162 2.0 2.0 1.02 0.21 0.21 86 1019.9
20260831192622 69 215 1.0 2.0 0.31 0.09 0.09 84 1020.2
20260831192118 69 220 2.0 2.0 0.00 0.04 0.04 84 1020.3
20260831191614 69 208 2.0 2.0 0.00 0.04 0.04 84 1020.3
20260831191109 69 270 3.0 3.0 0.05 0.04 0.04 84 1020.0
20260831190604 69 282 4.0 5.0 0.05 0.04 0.04 83 1019.9
20260831185559 69 346 3.0 6.0 0.00 0.03 0.03 84 1019.4
20260831185054 69 10 6.0 8.0 0.00 0.03 0.03 85 1019.4
20260831184548 69 332 5.0 6.0 0.00 0.03 0.03 84 1019.4
20260831184044 69 296 7.0 11.0 0.00 0.03 0.03 83 1019.0
20260831183543 70 344 7.0 8.0 0.00 0.03 0.03 81 1018.8
20260831183042 71 344 9.0 13.0 0.00 0.03 0.03 78 1018.7
20260831182537 71 247 10.0 13.0 0.00 0.03 0.03 78 1019.2
20260831182032 70 285 15.0 17.0 0.00 0.03 0.03 79 1018.9
20260831181527 71 275 13.0 16.0 0.00 0.03 0.03 79 1019.4
20260831181026 72 273 9.0 13.0 0.00 0.03 0.03 78 1019.0
20260831180521 72 313 8.0 10.0 0.00 0.03 0.03 77 1018.7
20260831180016 73 299 8.0 8.0 0.00 0.03 0.03 75 1018.7
20260831175512 73 264 9.0 10.0 0.00 0.03 0.03 75 1018.7
20260831175009 73 318 8.0 10.0 0.00 0.03 0.03 74 1019.0
20260831174508 74 324 7.0 8.0 0.00 0.03 0.03 73 1018.8
20260831174003 74 302 12.0 14.0 0.00 0.03 0.03 73 1018.7
20260831173501 75 315 10.0 14.0 0.00 0.03 0.03 75 1018.6
20260831172957 76 174 11.0 14.0 0.00 0.03 0.03 72 1018.3
20260831172452 77 353 8.0 10.0 0.00 0.03 0.03 68 1018.4
20260831171947 78 315 7.0 8.0 0.00 0.03 0.03 67 1018.5
20260831171442 78 324 8.0 11.0 0.00 0.03 0.03 64 1018.2
20260831170939 77 310 4.0 5.0 0.00 0.03 0.03 68 1018.2
20260831170430 77 301 6.0 8.0 0.00 0.03 0.03 71 1018.0
20260831165927 77 307 8.0 9.0 0.00 0.03 0.03 69 1017.7
20260831165422 77 335 10.0 14.0 0.00 0.03 0.03 71 1017.7
20260831164918 79 238 7.0 8.0 0.00 0.03 0.03 69 1017.6
20260831164415 80 334 5.0 6.0 0.00 0.03 0.03 60 1017.4
20260831163909 80 12 5.0 6.0 0.00 0.03 0.03 61 1017.3
20260831163405 80 315 6.0 7.0 0.00 0.03 0.03 60 1017.1
20260831162903 81 33 7.0 8.0 0.00 0.03 0.03 53 1017.1
20260831162359 82 31 4.0 5.0 0.00 0.03 0.03 53 1016.9
20260831161857 82 85 5.0 6.0 0.00 0.03 0.03 53 1017.0
20260831161354 82 87 3.0 6.0 0.00 0.03 0.03 52 1016.8
20260831160849 81 115 6.0 7.0 0.00 0.03 0.03 54 1016.6
20260831160344 80 130 5.0 6.0 0.00 0.03 0.03 55 1016.8
20260831155839 79 63 2.0 2.0 0.00 0.03 0.03 60 1016.8
20260831155338 79 22 5.0 6.0 0.00 0.03 0.03 67 1016.8
20260831154834 80 135 4.0 6.0 0.00 0.03 0.03 66 1016.8
20260831154331 79 194 2.0 3.0 0.00 0.03 0.03 68 1016.7
20260831153829 78 159 2.0 3.0 0.00 0.03 0.03 70 1016.4
20260831153325 77 80 2.0 2.0 0.00 0.03 0.03 73 1016.9
20260831152821 78 132 4.0 6.0 0.00 0.03 0.03 72 1016.8
20260831152316 77 198 4.0 5.0 0.00 0.03 0.03 74 1017.0
20260831151812 75 141 3.0 5.0 0.00 0.03 0.03 77 1017.0
20260831151310 74 197 2.0 2.0 0.00 0.03 0.03 79 1017.1
20260831150806 74 198 5.0 6.0 0.00 0.03 0.03 79 1017.0
20260831150301 73 240 3.0 6.0 0.00 0.03 0.03 79 1016.9
20260831145800 74 177 4.0 6.0 0.00 0.03 0.03 79 1016.7
20260831145256 73 185 2.0 3.0 0.00 0.03 0.03 81 1016.6
20260831144752 73 201 6.0 7.0 0.00 0.03 0.03 81 1016.4
20260831144249 72 194 4.0 5.0 0.00 0.03 0.03 83 1016.3
20260831143748 72 209 4.0 5.0 0.00 0.03 0.03 83 1016.1
20260831143243 72 196 7.0 8.0 0.00 0.03 0.03 83 1016.0
20260831142739 71 213 7.0 8.0 0.00 0.03 0.03 84 1016.1
20260831142234 71 194 4.0 5.0 0.00 0.03 0.03 85 1016.3
20260831141733 71 198 6.0 7.0 0.00 0.03 0.03 86 1016.2
20260831141228 71 224 5.0 6.0 0.00 0.03 0.03 87 1016.3
20260831140728 70 145 2.0 2.0 0.00 0.03 0.03 87 1016.2
20260831140223 70 116 2.0 2.0 0.00 0.03 0.03 88 1016.2
20260831135721 70 115 1.0 2.0 0.00 0.03 0.03 88 1016.0
20260831135217 70 200 0.0 1.0 0.00 0.03 0.03 88 1016.1
20260831134712 69 151 1.0 3.0 0.00 0.03 0.03 88 1016.0
20260831134208 69 116 3.0 3.0 0.00 0.03 0.03 89 1016.0
20260831133707 69 152 1.0 1.0 0.00 0.03 0.03 89 1016.2
20260831133201 69 185 0.0 0.0 0.00 0.03 0.03 89 1016.3
20260831132657 69 222 2.0 2.0 0.00 0.03 0.03 89 1016.2
20260831132156 68 212 0.0 0.0 0.00 0.03 0.03 89 1016.3
20260831131651 68 27 2.0 2.0 0.00 0.03 0.03 89 1016.1
20260831131148 68 150 1.0 1.0 0.00 0.03 0.03 89 1016.2
20260831130643 68 233 0.0 1.0 0.00 0.03 0.03 89 1016.4
20260831130138 68 346 2.0 2.0 0.00 0.03 0.03 89 1016.1
20260831125636 68 15 4.0 7.0 0.00 0.03 0.03 89 1016.2
20260831125133 68 22 6.0 7.0 0.00 0.03 0.03 89 1016.4
20260831124628 68 3 6.0 7.0 0.00 0.03 0.03 88 1016.4
20260831124124 69 46 3.0 6.0 0.00 0.03 0.03 88 1016.4
20260831123624 69 329 5.0 6.0 0.07 0.03 0.03 87 1016.9
20260831123123 69 347 5.0 7.0 0.14 0.03 0.03 87 1016.8
20260831122622 69 317 6.0 7.0 0.12 0.02 0.02 86 1016.9
20260831122119 70 330 7.0 8.0 0.05 0.01 0.01 85 1016.9
20260831121617 71 340 4.0 5.0 0.00 0.00 0.00 84 1016.7
20260831121114 71 337 4.0 6.0 0.00 0.00 0.00 83 1016.7
20260831120609 72 326 7.0 9.0 0.00 0.00 0.00 81 1016.6
20260831120104 72 325 3.0 3.0 0.00 0.00 0.00 80 1016.7
20260831115600 72 251 6.0 7.0 0.00 0.00 0.00 80 1016.1
20260831115055 72 276 5.0 6.0 0.00 0.00 0.00 80 1016.2
20260831114554 72 281 13.0 16.0 0.00 0.00 0.00 80 1016.0
20260831114049 72 313 11.0 13.0 0.00 0.00 0.00 79 1015.8
20260831113548 73 257 11.0 13.0 0.00 0.00 0.00 79 1015.5
20260831113044 73 302 15.0 21.0 0.00 0.00 0.00 76 1015.5
20260831112543 75 295 12.0 14.0 0.00 0.00 0.00 75 1015.4
20260831112038 76 278 11.0 16.0 0.00 0.00 0.00 69 1015.3
20260831111534 78 271 18.0 20.0 0.00 0.00 0.00 64 1015.1
20260831111030 82 231 10.0 11.0 0.00 0.00 0.00 52 1014.6
20260831110525 81 238 5.0 6.0 0.00 0.00 0.00 52 1014.5
20260831110020 81 210 4.0 5.0 0.00 0.00 0.00 53 1014.3
20260831105520 81 221 3.0 3.0 0.00 0.00 0.00 53 1014.1
20260831105015 81 251 2.0 2.0 0.00 0.00 0.00 53 1014.1
20260831104511 81 218 1.0 2.0 0.00 0.00 0.00 53 1014.0
20260831104007 81 250 0.0 0.0 0.00 0.00 0.00 53 1013.6
20260831103501 81 224 0.0 0.0 0.00 0.00 0.00 53 1013.6
20260831102956 81 199 2.0 3.0 0.00 0.00 0.00 52 1013.2
20260831102451 81 202 4.0 5.0 0.00 0.00 0.00 52 1013.4
20260831101946 82 174 0.0 1.0 0.00 0.00 0.00 52 1013.6
20260831101441 81 169 3.0 6.0 0.00 0.00 0.00 52 1013.5
20260831100937 81 201 1.0 1.0 0.00 0.00 0.00 52 1013.4
20260831100433 81 213 2.0 2.0 0.00 0.00 0.00 52 1013.5
20260831095928 82 186 1.0 1.0 0.00 0.00 0.00 52 1013.3
20260831095427 82 191 5.0 9.0 0.00 0.00 0.00 52 1013.3
20260831094922 82 152 2.0 3.0 0.00 0.00 0.00 52 1013.2
20260831094418 81 195 2.0 5.0 0.00 0.00 0.00 53 1013.1
20260831093914 81 197 3.0 5.0 0.00 0.00 0.00 54 1013.3
20260831093408 81 195 3.0 5.0 0.00 0.00 0.00 55 1013.4
20260831092905 81 191 5.0 7.0 0.00 0.00 0.00 55 1013.4
20260831092401 81 172 2.0 2.0 0.00 0.00 0.00 55 1013.7
20260831091856 81 148 2.0 2.0 0.00 0.00 0.00 55 1013.5
20260831091351 82 171 0.0 0.0 0.00 0.00 0.00 55 1013.4
20260831090846 82 184 0.0 0.0 0.00 0.00 0.00 55 1013.5
20260831090342 82 161 0.0 0.0 0.00 0.00 0.00 54 1013.5
20260831085838 82 272 0.0 0.0 0.00 0.00 0.00 54 1013.6
20260831085332 82 183 0.0 0.0 0.00 0.00 0.00 54 1013.5
20260831084827 83 181 0.0 0.0 0.00 0.00 0.00 53 1013.4
20260831084323 83 169 0.0 1.0 0.00 0.00 0.00 53 1013.4
20260831083820 83 162 0.0 1.0 0.00 0.00 0.00 53 1013.7
20260831083315 82 150 1.0 1.0 0.00 0.00 0.00 53 1013.6
20260831082813 82 172 0.0 0.0 0.00 0.00 0.00 54 1013.7
20260831082308 82 164 0.0 0.0 0.00 0.00 0.00 54 1013.5
20260831081804 83 195 0.0 0.0 0.00 0.00 0.00 53 1013.7
20260831081259 83 200 2.0 2.0 0.00 0.00 0.00 53 1013.7
20260831080755 83 184 0.0 0.0 0.00 0.00 0.00 53 1014.0
20260831080249 83 188 0.0 0.0 0.00 0.00 0.00 53 1013.8
20260831075746 83 186 0.0 0.0 0.00 0.00 0.00 52 1013.8
20260831075241 83 176 0.0 1.0 0.00 0.00 0.00 51 1013.6
20260831074740 84 180 0.0 1.0 0.00 0.00 0.00 52 1014.1
20260831074234 84 172 0.0 0.0 0.00 0.00 0.00 51 1013.7
20260831073730 84 145 0.0 0.0 0.00 0.00 0.00 51 1013.8
20260831073229 84 148 1.0 1.0 0.00 0.00 0.00 50 1013.8
20260831072724 84 180 0.0 0.0 0.00 0.00 0.00 51 1013.8
20260831072220 84 181 0.0 0.0 0.00 0.00 0.00 50 1014.0
20260831071715 84 172 0.0 0.0 0.00 0.00 0.00 50 1013.8
20260831071215 84 154 0.0 1.0 0.00 0.00 0.00 50 1013.8
20260831070709 84 177 0.0 0.0 0.00 0.00 0.00 50 1014.0
20260831070203 85 183 0.0 0.0 0.00 0.00 0.00 50 1014.3
20260831065702 85 193 0.0 0.0 0.00 0.00 0.00 49 1014.0
20260831065201 85 194 0.0 1.0 0.00 0.00 0.00 49 1014.2
20260831064656 85 184 0.0 0.0 0.00 0.00 0.00 49 1014.2
20260831064151 86 183 0.0 0.0 0.00 0.00 0.00 48 1014.1
20260831063647 86 190 0.0 1.0 0.00 0.00 0.00 48 1014.2
20260831063142 86 194 1.0 1.0 0.00 0.00 0.00 47 1014.1
20260831062637 86 196 1.0 1.0 0.00 0.00 0.00 47 1014.4
20260831062136 85 198 2.0 2.0 0.00 0.00 0.00 48 1014.2
20260831061634 85 184 0.0 0.0 0.00 0.00 0.00 48 1014.4
20260831061130 85 184 0.0 0.0 0.00 0.00 0.00 48 1014.3
20260831060626 85 187 0.0 0.0 0.00 0.00 0.00 47 1014.5
20260831060121 86 188 0.0 0.0 0.00 0.00 0.00 47 1014.5
20260831055620 86 191 0.0 0.0 0.00 0.00 0.00 47 1014.2
20260831055116 86 195 0.0 0.0 0.00 0.00 0.00 47 1014.1
20260831054615 86 225 0.0 0.0 0.00 0.00 0.00 47 1014.1
20260831054114 86 193 0.0 0.0 0.00 0.00 0.00 47 1014.1
20260831053609 86 186 0.0 0.0 0.00 0.00 0.00 46 1014.1
20260831053108 86 186 0.0 0.0 0.00 0.00 0.00 46 1014.1
20260831052607 86 194 0.0 0.0 0.00 0.00 0.00 46 1014.1
20260831052101 87 213 0.0 0.0 0.00 0.00 0.00 45 1014.3
20260831051559 87 11 1.0 1.0 0.00 0.00 0.00 45 1013.8
20260831051058 86 30 1.0 2.0 0.00 0.00 0.00 45 1013.7
20260831050558 86 192 0.0 0.0 0.00 0.00 0.00 46 1013.6
20260831050056 87 207 0.0 0.0 0.00 0.00 0.00 45 1013.7
20260831045556 87 202 0.0 0.0 0.00 0.00 0.00 45 1013.7
20260831045052 87 248 2.0 2.0 0.00 0.00 0.00 44 1013.6
20260831044548 87 254 1.0 2.0 0.00 0.00 0.00 45 1013.8
20260831044043 87 299 1.0 2.0 0.00 0.00 0.00 44 1014.1
20260831043543 87 318 3.0 3.0 0.00 0.00 0.00 44 1013.7
20260831043038 87 292 2.0 2.0 0.00 0.00 0.00 44 1013.7
20260831042532 87 198 0.0 1.0 0.00 0.00 0.00 44 1013.8
20260831042032 87 259 2.0 2.0 0.00 0.00 0.00 44 1013.8
20260831041527 87 340 3.0 5.0 0.00 0.00 0.00 44 1013.6
20260831041021 88 332 2.0 2.0 0.00 0.00 0.00 44 1013.7
20260831040516 87 333 4.0 6.0 0.00 0.00 0.00 44 1013.5
20260831040016 88 312 1.0 1.0 0.00 0.00 0.00 44 1013.3
20260831035513 88 16 3.0 3.0 0.00 0.00 0.00 44 1013.3
20260831035009 88 324 3.0 5.0 0.00 0.00 0.00 44 1013.4
20260831034503 88 282 6.0 7.0 0.00 0.00 0.00 43 1013.0
20260831033959 88 327 7.0 10.0 0.00 0.00 0.00 43 1013.0
20260831033454 89 311 6.0 8.0 0.00 0.00 0.00 43 1013.1
20260831032950 89 5 4.0 7.0 0.00 0.00 0.00 42 1013.1
20260831032449 90 350 9.0 10.0 0.00 0.00 0.00 40 1012.9
20260831031945 90 130 8.0 11.0 0.00 0.00 0.00 40 1012.9
20260831031444 91 322 3.0 3.0 0.00 0.00 0.00 39 1012.3
20260831030943 91 303 6.0 7.0 0.00 0.00 0.00 39 1012.3
20260831030443 92 301 7.0 8.0 0.00 0.00 0.00 38 1012.1
20260831025941 93 294 8.0 10.0 0.00 0.00 0.00 38 1012.0
20260831025440 93 216 5.0 6.0 0.00 0.00 0.00 37 1011.9
20260831024936 93 259 4.0 5.0 0.00 0.00 0.00 36 1012.0
20260831024436 93 339 3.0 5.0 0.00 0.00 0.00 37 1011.7
20260831023931 93 270 1.0 2.0 0.00 0.00 0.00 37 1011.5
20260831023429 94 284 3.0 3.0 0.00 0.00 0.00 36 1011.5
20260831022925 94 266 6.0 8.0 0.00 0.00 0.00 35 1011.4
20260831022423 93 353 3.0 5.0 0.00 0.00 0.00 36 1011.1
20260831021924 94 275 4.0 5.0 0.00 0.00 0.00 35 1011.0
20260831021418 94 245 5.0 7.0 0.00 0.00 0.00 35 1011.2
20260831020914 94 24 4.0 5.0 0.00 0.00 0.00 35 1011.2
20260831020413 94 222 1.0 1.0 0.00 0.00 0.00 35 1011.4
20260831015908 94 273 6.0 7.0 0.00 0.00 0.00 34 1011.0
20260831015404 94 294 4.0 5.0 0.00 0.00 0.00 34 1011.0
20260831014904 94 331 2.0 3.0 0.00 0.00 0.00 34 1011.0
20260831014359 94 310 3.0 3.0 0.00 0.00 0.00 34 1011.0
20260831013855 95 263 5.0 6.0 0.00 0.00 0.00 34 1011.1
20260831013350 94 256 5.0 6.0 0.00 0.00 0.00 34 1010.8
20260831012844 95 281 3.0 3.0 0.00 0.00 0.00 34 1010.8
20260831012340 95 250 3.0 3.0 0.00 0.00 0.00 34 1010.8
20260831011840 95 290 3.0 5.0 0.00 0.00 0.00 34 1010.8
20260831011335 95 303 5.0 6.0 0.00 0.00 0.00 34 1010.8
20260831010831 95 270 5.0 7.0 0.00 0.00 0.00 34 1010.9
20260831010330 95 269 5.0 7.0 0.00 0.00 0.00 33 1011.0
20260831005826 95 4 4.0 5.0 0.00 0.00 0.00 34 1010.7
20260831005321 95 283 3.0 3.0 0.00 0.00 0.00 34 1010.6
20260831004816 95 302 3.0 3.0 0.00 0.00 0.00 33 1010.6
20260831004312 96 297 4.0 5.0 0.00 0.00 0.00 34 1010.6
20260831003808 96 272 5.0 6.0 0.00 0.00 0.00 33 1010.8
20260831003304 96 278 6.0 8.0 0.00 0.00 0.00 33 1010.8
20260831002803 97 344 3.0 5.0 0.00 0.00 0.00 34 1010.6
20260831002305 98 206 3.0 3.0 0.00 0.00 0.00 33 1010.8
20260831001758 97 109 4.0 5.0 0.00 0.00 0.00 33 1010.8
20260831001253 97 259 5.0 7.0 0.00 0.00 0.00 32 1010.8
20260831000751 97 283 5.0 6.0 0.00 0.00 0.00 32 1010.8
20260831000251 97 286 7.0 8.0 0.00 0.00 0.00 33 1011.0
20260830235749 97 193 2.0 2.0 0.00 0.00 0.00 32 1010.8
20260830235244 97 304 4.0 5.0 0.00 0.00 0.00 33 1010.7
20260830234739 97 245 7.0 9.0 0.00 0.00 0.00 33 1010.6
20260830234235 98 249 4.0 5.0 0.00 0.00 0.00 32 1010.6
20260830233731 97 6 3.0 3.0 0.00 0.00 0.00 32 1010.8
20260830233226 97 226 2.0 2.0 0.00 0.00 0.00 34 1010.8
20260830232721 96 228 3.0 3.0 0.00 0.00 0.00 34 1010.9
20260830232217 96 310 3.0 3.0 0.00 0.00 0.00 34 1011.1
20260830231714 98 289 4.0 6.0 0.00 0.00 0.00 33 1011.1
20260830231213 97 284 9.0 11.0 0.00 0.00 0.00 34 1011.1
20260830230708 99 249 5.0 6.0 0.00 0.00 0.00 33 1011.0
20260830230203 98 223 2.0 2.0 0.00 0.00 0.00 31 1011.5
20260830225657 98 25 2.0 2.0 0.00 0.00 0.00 33 1011.5
20260830225152 98 260 5.0 6.0 0.00 0.00 0.00 32 1011.4
20260830224651 99 223 1.0 2.0 0.00 0.00 0.00 33 1011.5
20260830224147 97 184 3.0 3.0 0.00 0.00 0.00 32 1011.8
20260830223644 97 184 4.0 5.0 0.00 0.00 0.00 33 1011.9
20260830223143 98 34 3.0 5.0 0.00 0.00 0.00 33 1011.9
20260830222638 96 279 5.0 5.0 0.00 0.00 0.00 34 1012.0
20260830222134 97 261 6.0 7.0 0.00 0.00 0.00 34 1012.1
20260830221629 98 260 8.0 10.0 0.00 0.00 0.00 33 1012.3
20260830221126 97 203 2.0 2.0 0.00 0.00 0.00 33 1012.4
20260830220621 97 292 8.0 9.0 0.00 0.00 0.00 34 1012.3
20260830220120 98 302 5.0 6.0 0.00 0.00 0.00 33 1012.5
20260830215619 98 224 0.0 1.0 0.00 0.00 0.00 31 1012.5
20260830215113 97 214 1.0 1.0 0.00 0.00 0.00 32 1012.7
20260830214608 97 15 3.0 5.0 0.00 0.00 0.00 31 1012.9
20260830214058 97 193 0.0 1.0 0.00 0.00 0.00 32 1012.8
20260830213557 97 205 5.0 7.0 0.00 0.00 0.00 32 1013.0
20260830213053 97 200 1.0 1.0 0.00 0.00 0.00 32 1012.8
20260830212549 97 236 3.0 3.0 0.00 0.00 0.00 32 1012.9
20260830212048 96 325 2.0 3.0 0.00 0.00 0.00 32 1013.0
20260830211543 96 247 3.0 5.0 0.00 0.00 0.00 33 1013.3
20260830211038 97 272 4.0 5.0 0.00 0.00 0.00 33 1013.2
20260830210533 95 238 5.0 6.0 0.00 0.00 0.00 34 1013.2
20260830210032 97 301 5.0 6.0 0.00 0.00 0.00 31 1013.2
20260830205530 97 27 3.0 3.0 0.00 0.00 0.00 30 1013.7
20260830205026 98 7 4.0 5.0 0.00 0.00 0.00 30 1013.7
20260830204524 96 247 3.0 3.0 0.00 0.00 0.00 32 1013.7
20260830204019 96 292 8.0 9.0 0.00 0.00 0.00 33 1014.1
20260830203515 96 208 9.0 10.0 0.00 0.00 0.00 32 1014.1
20260830203010 96 291 5.0 6.0 0.00 0.00 0.00 34 1014.1
20260830202504 96 302 2.0 2.0 0.00 0.00 0.00 35 1014.3
20260830202000 96 321 3.0 3.0 0.00 0.00 0.00 34 1014.5
20260830201459 97 60 2.0 2.0 0.00 0.00 0.00 34 1014.1
20260830200954 96 16 3.0 3.0 0.00 0.00 0.00 34 1014.3
20260830200454 95 220 4.0 5.0 0.00 0.00 0.00 37 1014.4
20260830195954 95 234 4.0 5.0 0.00 0.00 0.00 35 1014.8
20260830195450 95 288 7.0 9.0 0.00 0.00 0.00 35 1014.5
20260830194948 95 56 1.0 1.0 0.00 0.00 0.00 33 1014.8
20260830194447 94 208 6.0 7.0 0.00 0.00 0.00 36 1014.8